User: anonymous   Login
Location: ????????
(55.3155°N, 39.2900°E)
Time: 16:00:45
(UTC+00:00)
Language:

Cosmos 1340 - Orbit

View from above orbital plane
View from above orbital plane
View from above satellite
View from above satellite

Ground track
Ground track

The orbit data is extracted from the following two-line orbital elements,

1 13067U 82013A   25094.04292280  .15183099 -88184-6  34145-3 0  9990
2 13067  81.1376   9.5213 0008476 233.8261 233.6600 16.46050672362621
Epoch (UTC): 04 April 2025 01:01:48
Eccentricity: 0.0008476
inclination: 81.1376°
perigee height: 144 km
apogee height: 155 km
right ascension of ascending node: 9.5213°
argument of perigee: 233.8261°
revolutions per day: 16.46050672
mean anomaly at epoch: 233.6600°
orbit number at epoch: 36262

The dashed part of the orbit path shows where the satellite is in the earth's shadow,  

DLR